Regional Weather Roundup
Issued by NWS

Home | Current Version | Previous Version | Graphics & Text | Print | Product List | Glossary On
Versions: 1 2 3 4 5 6 7 8 9 10 11 12 13 14 15 16 17 18 19 20 21 22 23 24 25 26 27 28 29 30 31 32 33 34 35 36 37 38 39 40 41 42 43 44 45 46 47 48 49 50
000
ASUS43 KDMX 051107
RWRIA

WEATHER ROUNDUP FOR IOWA
NATIONAL WEATHER SERVICE DES MOINES IA
600 AM CDT SAT SEP 05 2015

NOTE: "FAIR" INDICATES FEW OR NO CLOUDS BELOW 12,000 FEET WITH NO
SIGNIFICANT WEATHER AND/OR OBSTRUCTIONS TO VISIBILITY.

* - THESE STATIONS ARE NOT NWS STATIONS...THUS NOT UNDER NWS
QUALITY CONTROL.  THEY ALSO DO NOT REPORT WEATHER SUCH
AS PRECIPITATION OR FOG.

IAZ001>003-012>014-020>022-031>034-043>046-051200-
   NORTHWEST IOWA

CITY           SKY/WX    TMP DP  RH WIND       PRES   REMARKS
CARROLL *      PTCLDY    72  70  94 S7        29.96F
CHEROKEE *     PTCLDY    73  72  94 S7        29.92S
DENISON *      PTCLDY    73  70  88 S10G20    29.93F
LE MARS *      CLEAR     75  70  83 S15       29.89S
ORANGE CITY *  MOCLDY    73  70  88 S10       29.90R
SHELDON *      PTCLDY    73  70  88 S14G22    29.89S
SIOUX CITY     MOCLDY    74  69  85 SE9       29.88S
SPENCER        CLOUDY    75  68  78 S14       29.92F HAZE
STORM LAKE *   CLOUDY    72  70  94 S7        29.96S
$$

IAZ055>058-069>071-079>083-090>094-051200-
   SOUTHWEST IOWA

CITY           SKY/WX    TMP DP  RH WIND       PRES   REMARKS
ATLANTIC *     CLEAR     72  70  94 S7        29.97S
AUDUBON *      CLEAR     72  66  83 S5        29.99S
CLARINDA *     CLEAR     70  70 100 CALM      29.99S
COUNCIL BLFS * CLEAR     72  70  94 S9        29.95S
CRESTON *      CLEAR     70  68  94 S8        30.02S
LAMONI         CLEAR     72  68  87 S6        30.01S
RED OAK *      CLEAR     72  70  94 S6        29.97S
SHENANDOAH *   CLEAR     72  70  94 SE6       29.97S
$$

IAZ047>049-059>061-072>074-084-051200-
   CENTRAL IOWA

CITY           SKY/WX    TMP DP  RH WIND       PRES   REMARKS
AMES           PTCLDY    70  68  93 SE5       30.00R FOG
ANKENY *       CLEAR     72  70  94 S5        29.99S
CHARITON *     CLEAR     72  68  88 S7        30.02S
DES MOINES     PTCLDY    74  67  78 S6        29.99S
GRINNELL*      CLEAR     70  66  88 SE3       30.04R
KNOXVILLE *    PTCLDY    72  68  88 SE6       30.01R
MARSHALLTOWN   CLEAR     71  68  90 SE6       30.01S
PELLA *        CLEAR     72  72 100 S6        30.03S
PERRY *          N/A     72  70  94 S3        29.99R
$$

IAZ004>006-015-016-023>025-035-036-051200-
   NORTH CENTRAL IOWA

CITY           SKY/WX    TMP DP  RH WIND       PRES   REMARKS
ALGONA *       CLEAR     73  70  88 S9        29.97F
CLARION *      CLEAR     70  68  94 S8        29.99S
ESTHERVILLE    MOCLDY    72  69  90 S12       29.93F
FORT DODGE *   MOCLDY    73  66  78 S7        29.99S
MASON CITY       N/A     69  68  96 S7        30.01R
FOREST CITY *  CLEAR     70  70 100 S7        29.98F
IOWA FALLS *     N/A     70  68  94 SE5       30.02R
$$

IAZ007>011-017>019-026>030-037>042-050>054-066-051200-
   NORTHEAST IOWA

CITY           SKY/WX    TMP DP  RH WIND       PRES   REMARKS
CEDAR RAPIDS   PTCLDY    72  70  93 CALM      30.03R
CHARLES CITY * CLEAR     73  72  94 S8        30.01S
CLINTON *      CLOUDY    72  70  94 E5        30.08R
DECORAH *      MOCLDY    72  70  94 SE3       30.02S
DUBUQUE        CLOUDY    73  71  93 SE7       30.06S FOG
MONTICELLO *   CLEAR     73  70  88 E3        30.04R
OELWEIN *      CLOUDY    73  70  88 S7        30.04R
WATERLOO       CLEAR     73  69  87 S6        30.01R
$$

IAZ064-065-067-068-078-051200-
   EAST CENTRAL IOWA

CITY           SKY/WX    TMP DP  RH WIND       PRES   REMARKS
DAVENPORT      CLOUDY    73  69  87 S5        30.05R
IOWA CITY      PTCLDY    72  70  93 CALM      30.04S
MT. PLEASANT * PTCLDY    72  68  88 CALM      30.04S
MUSCATINE *    CLEAR     72  70  94 CALM      30.04R
QUAD CITIES    CLOUDY    73  68  84 CALM      30.05R
$$

IAZ062-063-075>077-085>089-095>099-051200-
   SOUTHEAST IOWA

CITY           SKY/WX    TMP DP  RH WIND       PRES   REMARKS
BURLINGTON     PTCLDY    72  70  93 CALM      30.05R
FAIRFIELD *    CLEAR     72  68  88 S5        30.04R
FORT MADISON * CLEAR     73  70  88 SW5       30.05S
KEOKUK *       CLEAR     73  70  88 SW5       30.04S
OSKALOOSA *      N/A     68  66  94 S3        30.03S
CENTERVILLE *  CLEAR     68  66  94 SE3       30.05S
OTTUMWA        CLEAR     71  69  93 S7        30.02R
WASHINGTON *     N/A    N/A N/A N/A MISG        N/A
$$

ABBREVIATIONS USED IN REMARKS
   TC - TEMPERATURES IN CELSIUS
  WCI - WIND CHILL INDEX
   HX - HEAT INDEX
  VSB - VISIBILITY
$$




USA.gov is the U.S. government's official web portal to all federal, state and local government web resources and services.